TimePST,TemperatureF,Dew PointF,Humidity,Sea Level PressureIn,VisibilityMPH,Wind Direction,Wind SpeedMPH,Gust SpeedMPH,PrecipitationIn,Events,Conditions,WindDirDegrees,DateUTC
12:53 AM,45.0,37.9,76,29.70,10.0,NNW,3.5,-,N/A,,Overcast,330,2013-03-06 08:53:00
1:53 AM,44.1,37.9,79,29.68,10.0,Calm,Calm,-,N/A,,Mostly Cloudy,0,2013-03-06 09:53:00
2:53 AM,44.1,37.0,76,29.65,10.0,Calm,Calm,-,N/A,,Scattered Clouds,0,2013-03-06 10:53:00
3:53 AM,44.6,35.6,71,29.63,10.0,North,3.5,-,N/A,,Mostly Cloudy,350,2013-03-06 11:53:00
4:53 AM,43.0,37.0,80,29.62,10.0,Calm,Calm,-,N/A,,Mostly Cloudy,0,2013-03-06 12:53:00
5:53 AM,44.1,37.0,76,29.60,10.0,Variable,4.6,-,N/A,,Overcast,0,2013-03-06 13:53:00
6:53 AM,45.0,37.0,74,29.59,10.0,North,4.6,-,N/A,,Overcast,350,2013-03-06 14:53:00
7:53 AM,45.0,37.0,74,29.59,10.0,North,3.5,-,N/A,,Overcast,10,2013-03-06 15:53:00
8:53 AM,46.0,36.0,68,29.60,10.0,Calm,Calm,-,N/A,,Overcast,0,2013-03-06 16:53:00
9:53 AM,46.0,37.9,73,29.61,10.0,North,6.9,-,0.00,Rain,Light Rain,360,2013-03-06 17:53:00
10:53 AM,46.0,39.0,76,29.62,10.0,North,5.8,-,0.02,Rain,Light Rain,350,2013-03-06 18:53:00
11:53 AM,46.0,39.9,79,29.64,9.0,NNW,4.6,-,0.03,Rain,Light Rain,340,2013-03-06 19:53:00
12:53 PM,46.0,41.0,83,29.66,6.0,North,8.1,-,0.04,Rain,Light Rain,350,2013-03-06 20:53:00
1:53 PM,45.0,39.9,82,29.68,4.0,Variable,3.5,-,0.07,Rain,Light Rain,0,2013-03-06 21:53:00
2:24 PM,44.6,39.2,81,29.69,6.0,WNW,4.6,-,0.04,Rain,Light Rain,300,2013-03-06 22:24:00
2:53 PM,45.0,39.9,82,29.70,6.0,WNW,3.5,-,0.07,Rain,Light Rain,300,2013-03-06 22:53:00
3:53 PM,44.1,37.9,79,29.73,8.0,Calm,Calm,-,0.04,Rain,Light Rain,0,2013-03-06 23:53:00
4:53 PM,44.1,37.9,79,29.75,8.0,Calm,Calm,-,0.04,Rain,Light Rain,0,2013-03-07 00:53:00
5:24 PM,44.6,37.4,76,29.76,6.0,Calm,Calm,-,0.03,Rain,Light Rain,0,2013-03-07 01:24:00
5:53 PM,44.1,39.0,82,29.77,8.0,Calm,Calm,-,0.06,Rain,Light Rain,0,2013-03-07 01:53:00
6:53 PM,44.1,39.0,82,29.80,8.0,SE,3.5,-,0.07,Rain,Light Rain,130,2013-03-07 02:53:00
7:53 PM,44.1,39.0,82,29.81,10.0,South,9.2,-,0.04,Rain,Light Rain,170,2013-03-07 03:53:00
8:53 PM,43.0,39.0,86,29.84,9.0,South,11.5,-,0.03,Rain,Light Rain,170,2013-03-07 04:53:00
9:10 PM,42.8,39.2,87,29.85,9.0,South,10.4,-,0.01,Rain,Light Rain,170,2013-03-07 05:10:00
9:53 PM,43.0,37.9,82,29.86,10.0,SSE,10.4,-,0.03,Rain,Light Rain,160,2013-03-07 05:53:00
10:14 PM,42.8,37.4,81,29.87,8.0,SSE,8.1,-,0.01,Rain,Light Rain,150,2013-03-07 06:14:00
10:36 PM,42.8,37.4,81,29.88,10.0,SSE,9.2,-,0.02,Rain,Light Rain,150,2013-03-07 06:36:00
10:44 PM,42.8,37.4,81,29.88,10.0,SE,8.1,-,0.03,Rain,Light Rain,140,2013-03-07 06:44:00
10:53 PM,42.1,39.0,89,29.88,9.0,SSE,8.1,-,0.03,Rain,Light Rain,150,2013-03-07 06:53:00
11:07 PM,42.8,39.2,87,29.89,8.0,SE,6.9,-,0.01,Rain,Light Rain,140,2013-03-07 07:07:00
11:32 PM,42.8,39.2,87,29.90,9.0,SE,6.9,-,0.03,Rain,Light Rain,140,2013-03-07 07:32:00
11:53 PM,42.1,39.0,89,29.90,8.0,SE,6.9,-,0.04,Rain,Light Rain,130,2013-03-07 07:53:00